LEGE

Girona-Costa Brava Airport

Airport
ICAO code
LEGE
IATA Code
GRO
Summary
ICAO Region
EUR
ICAO Territory
Location

Vilobí d'Onyar, Catalonia

Serving
Girona
Elevation
468 ft
Coordinates
41° 54' 14" N , 2° 45' 42" E
KCC
Metar
Observation
LEGE 282000Z 04004KT 010V090 9999 FEW060 17/14 Q1006
Station
Gerona / Costa Brava
Date/Time
2022-09-28 20:00:00
Wind direction
40°
Wind speed
04 kts
Lowest cloud amount
few clouds
Temperature
17°C
Dew point
14°C
Humidity
82%
QNH
1006 hPa
Weather condition
n/a

Girona-Costa Brava Airport is an airport located 12.5 km southwest of the city of Girona, next to the small village of Vilobí d'Onyar, in the north-east of Catalonia, Spain. It is well connected to the Costa Brava, Barcelona and the Pyrenees.

Climatology

Humid “subtropical”/Mediterranean climate (Köppen climate classification Cfa/Csa) - characterized by hot, humid summers and cool winters. Significant amounts of precipitation occur in all seasons in most areas. Winter rainfall (and sometimes snowfall) is associated with large storms that the westerlies steer from west to east. Most summer rainfall occurs during thunderstorms. Cold winds from the Pyrenees in the winter can cause temperatures as low as -5C.

Runways

Designator Length Width Surface Rops
2/20 2400 45 ASP Yes/Yes

SKYbrary Partners:

Safety knowledge contributed by: